Content
SEND FEEDBACK

Daily
Averages
Monthly
Summary
Canada

QUEBEC CITY, QUEBEC


Home > North America > Canada > Quebec
Elevation: 72 meters     Latitude: 46 48N     Longitude: 071 23W

WEATHER
 
SELECT A DAY
Number of Records: 192,807;   Date Range: 6/30/96 - 9/17/14
 
SHARE

PRINT THIS DATA

[ ← Previous Day ]
WEATHER ALMANAC - 3 JANUARY, 2013
[ Next Day → ]
[ °F ]   °C
Weather ElementAverageHighLow
Temperature-19.8 °C-17 °C (2:00 pm)-22 °C (3:00 am)
Dewpoint-24.6 °C (7:36 pm)-28 °C (2:00 am)
Humidity62.1 %72 % (10:00 pm)55 % (2:00 am)
Barometer987.1 hPa1022.4 hPa (3:00 am) (7:00 pm)
Wind Speed17.4 km/h29.6 km/h (3:00 pm)
Weather ElementAverage
Visibility28.6 km
Wind DirectionWSW (244.4 °)

Weather ElementTotal
Precipitation---
Heating Degree Days37.8 (Base 18.3)
Averaged from 32 records on 3 January, 2013
WEATHER CONDITIONS BREAKOUT
WIND DIRECTION BREAKOUT
WEATHER BY HOUR - 3 JANUARY, 2013
[ °F ]   °C
Local TimeTemperatureDewpointHumidityBarometerVisibilityWind DirectionWind SpeedGust SpeedPrecipitationEventsConditions
1:00 AM-20.6 °C-25 °C56 %1021 hPaWest (270°)13 km/h
1:00 AM-21 °C-27 °C60 %1021.7 hPa24.1 kmWest (260°)18.5 km/hClear
2:00 AM-21 °C-28 °C55 %1021.7 hPa24.1 kmWSW (240°)22.2 km/hClear
3:00 AM-22 °C-28 °C59 %1022.4 hPa24.1 kmSW (230°)25.9 km/hClear
4:00 AM-21.1 °C-25.6 °C55 %1021.7 hPaWest (260°)11.1 km/h
4:00 AM-22 °C-28 °C59 %1022 hPa24.1 kmWSW (250°)18.5 km/hClear
5:00 AM-22 °C-28 °C59 %1021.7 hPa24.1 kmWSW (240°)22.2 km/hPartly Cloudy
6:00 AM-22 °C-27 °C65 %1021.3 hPa24.1 kmWSW (250°)27.8 km/hPartly Cloudy
7:00 AM-22 °C-27 °C65 %1021.3 hPa24.1 kmWSW (240°)18.5 km/hMostly Cloudy
7:00 AM-21.1 °C-25 °C58 %1021 hPaWSW (250°)14.8 km/h
8:00 AM-22 °C-27 °C65 %1021 hPa40.2 kmWSW (250°)24.1 km/hMostly Cloudy
9:00 AM-22 °C-27 °C65 %1021.7 hPa40.2 kmWSW (250°)27.8 km/hMostly Cloudy
10:00 AM-20.6 °C-24.4 °C56 %1021.3 hPaSW (230°)14.8 km/h
10:00 AM-21 °C-27 °C60 %1021.3 hPa40.2 kmWSW (240°)24.1 km/hMostly Cloudy
11:00 AM-20 °C-26 °C60 %1020.7 hPa40.2 kmWSW (250°)16.7 km/hMostly Cloudy
12:00 PM-18 °C-24 °C60 %1019.6 hPa40.2 kmWest (260°)20.4 km/hMostly Cloudy
1:00 PM-18 °C-24 °C60 %1018.6 hPa40.2 kmSW (220°)22.2 km/hMostly Cloudy
1:00 PM-17.8 °C-21.7 °C58 %1018.6 hPaSW (230°)16.7 km/h
2:00 PM-17 °C-23 °C61 %1018.3 hPa40.2 kmSW (230°)27.8 km/hMostly Cloudy
3:00 PM-18 °C-23 °C66 %1017.6 hPa40.2 kmSW (230°)29.6 km/hMostly Cloudy
4:00 PM-18.3 °C-21.7 °C64 %1017.3 hPaWSW (250°)9.3 km/h
4:00 PM-18 °C-24 °C60 %1017.3 hPa40.2 kmWSW (240°)29.6 km/hMostly Cloudy
5:00 PM-18 °C-24 °C60 %1016.9 hPa24.1 kmWSW (250°)27.8 km/hMostly Cloudy
6:00 PM-18 °C-24 °C60 %1016.6 hPa24.1 kmWest (260°)13 km/hMostly Cloudy
7:00 PM-19 °C-24 °C66 %1016.6 hPa24.1 kmWest (270°)11.1 km/hOvercast
7:00 PM-18.3 °C-21.1 °C68 %1016.3 hPaWSW (250°)11.1 km/h
7:36 PM-19 °C-17.8 °C16.1 kmWest (280°)9.3 km/hSnowLight Snow
8:00 PM-19 °C-24 °C66 %1015.9 hPa16.1 kmWNW (290°)7.4 km/hSnowLight Snow
9:00 PM-19 °C-23 °C71 %1015.2 hPa16.1 kmWest (270°)11.1 km/hSnowLight Snow
10:00 PM-19.4 °C-21.7 °C72 %1014.6 hPaWNW (300°)5.6 km/h
10:00 PM-19 °C-24 °C66 %1014.6 hPa19.3 kmWest (280°)5.6 km/hScattered Clouds
11:00 PM-19 °C-23 °C71 %1013.9 hPa16.1 kmCalmSnowLight Snow
Hourly data recorded from CYQB, located 0 kilometers away from Quebec City, Quebec







STORIES FROM OUR PARTNERS